Location: Spaichingen
(48.0400°N, 8.4300°E)
Time: 22:14:50
(UTC+01:00)

ISS - Pass Details

Date: 27 January 2019
Orbit: 403 x 411 km, 51.6° (Epoch: 20 February)

Event Time Altitude Azimuth Distance (km) Brightness Sun altitude
Rises 18:20:15 0° 239° (WSW) 2,324 1.8 -10.5°
Reaches altitude 10° 18:22:20 10° 237° (WSW) 1,468 0.3 -10.9°
Maximum altitude 18:25:36 71° 154° (SSE) 436 -3.8 -11.4°
Enters shadow 18:27:46 20° 72° (ENE) 1,026 -2.4 -11.7°
